Theta_e
320 320 320 321 321 322 322 323 324 324 323 322 322 321 321 321 323 321 316 322 327 341 338 333 339 337 335 330 338 339 324 319 320 321 322 331 329 332 335 330 334 333 333 336 338
321 322 322 322 322 323 323 323 322 323 323 322 322 321 321 322 323 318 329 338 341 344 323 329 330 329 324 328 333 330 325 321 328 327 327 326 328 331 329 329 330 331 335 336 338
321 321 321 322 323 323 323 323 323 322 322 322 321 322 322 325 322 317 340 343 343 338 325 328 326 325 322 329 331 330 327 329 326 329 331 327 327 332 326 324 330 329 331 335 336
322 322 322 322 322 322 323 323 322 321 321 322 322 323 324 329 312 327 342 345 343 329 323 322 323 321 321 324 331 324 331 331 327 331 331 325 329 330 331 329 332 334 334 335 335
322 321 321 321 321 322 322 322 320 320 320 322 323 323 326 324 322 330 344 337 326 324 321 321 321 321 323 327 328 328 331 332 331 331 331 332 330 329 330 334 333 335 336 334 335
321 321 321 321 321 321 321 320 318 318 319 322 323 323 328 319 330 333 325 323 325 322 322 322 321 331 329 327 327 331 331 330 330 327 328 326 326 331 332 335 332 333 334 334 335
321 321 321 321 321 320 320 318 318 319 319 322 324 328 326 322 330 329 327 326 324 323 321 322 322 325 332 328 333 331 325 328 329 327 326 327 320 325 333 335 331 331 333 334 336
321 321 321 320 320 319 317 317 319 322 321 323 325 330 322 328 332 324 325 323 325 325 322 322 322 325 332 333 330 324 325 319 328 331 327 324 312 322 332 334 329 330 332 334 335
321 320 320 320 319 318 316 317 323 322 322 324 329 328 320 330 323 325 322 319 321 323 322 320 322 328 329 325 318 323 312 317 322 330 328 325 316 323 331 333 330 330 330 331 335
320 320 319 319 317 316 315 317 325 324 327 331 330 322 322 319 322 323 325 320 318 318 317 316 319 321 323 315 305 308 311 315 317 326 327 323 322 328 329 330 330 331 330 331 332
320 319 319 318 316 314 317 329 326 324 328 321 320 319 318 320 322 321 323 319 318 317 312 317 313 313 317 317 318 315 313 314 320 325 324 322 323 327 331 330 329 331 331 331 333
320 319 318 316 315 314 318 323 320 320 314 322 320 319 321 321 314 319 323 315 314 310 314 312 308 316 318 316 314 314 312 315 321 324 325 322 321 327 331 330 331 332 331 331 333
319 319 317 316 314 316 323 323 325 324 315 318 320 319 318 319 314 316 319 315 311 309 310 308 311 314 312 312 312 313 312 314 315 321 323 319 315 323 329 333 333 332 336 335 332
319 319 317 313 315 323 319 326 325 325 311 313 315 318 320 319 312 320 320 315 311 308 310 309 314 310 309 310 314 309 316 314 316 313 302 316 306 313 326 328 330 332 332 333 336
319 318 315 312 323 319 321 324 324 323 301 314 315 324 320 316 315 314 320 316 309 308 309 307 308 308 307 310 314 311 316 316 316 314 312 314 309 313 323 323 327 330 332 333 335
318 316 314 321 324 324 324 323 322 309 300 311 316 313 313 315 312 314 315 317 317 311 310 311 314 311 312 313 312 315 314 315 316 313 305 310 307 312 314 320 325 329 333 333 333
316 313 314 322 322 326 323 318 307 302 315 310 311 313 312 310 311 311 309 309 308 305 305 310 310 313 314 312 314 315 312 304 302 301 303 312 306 312 316 322 326 327 330 335 336
312 311 318 323 326 325 320 311 301 307 309 314 314 313 309 312 311 310 309 307 311 311 308 305 302 311 315 315 312 313 311 304 298 300 304 311 305 312 320 325 330 330 334 334 335
311 327 326 327 325 324 313 302 304 308 311 311 312 309 309 311 311 311 309 308 311 312 308 306 307 314 315 316 314 311 307 313 307 308 303 306 310 316 318 322 325 330 332 334 333
320 323 324 324 323 320 309 300 307 312 312 313 308 310 307 309 309 310 309 311 310 313 315 311 306 313 313 314 314 312 315 307 306 300 300 304 306 310 316 318 321 324 329 334 337
320 318 320 323 322 314 304 305 307 312 312 310 310 310 310 310 310 309 309 311 312 312 314 312 311 309 312 310 309 310 308 309 309 308 301 302 303 315 318 319 321 325 329 333 335
320 313 320 321 308 311 307 309 304 310 312 310 313 312 311 311 311 310 309 312 315 315 310 313 311 308 309 314 315 314 312 312 305 304 308 306 305 319 321 322 324 328 332 335 337
318 318 324 317 305 308 312 309 310 309 309 309 308 313 313 310 308 311 312 316 316 315 312 313 309 305 307 311 314 310 312 312 312 311 308 304 307 322 322 322 325 327 332 335 337
318 313 317 316 314 310 309 308 306 310 308 310 310 312 310 308 313 310 311 315 316 316 325 319 311 308 305 307 311 308 309 311 311 306 307 307 311 317 320 321 324 326 331 332 334
319 313 316 312 314 312 311 310 308 306 309 310 308 307 308 307 308 309 313 314 315 314 316 315 309 310 312 312 310 309 308 309 308 310 307 309 311 316 320 322 326 328 331 331 332
314 314 316 314 315 313 309 310 308 310 309 308 307 309 309 307 308 308 311 313 313 316 315 317 310 312 310 311 309 307 308 309 309 310 311 311 311 320 325 325 326 329 329 330 332
321 319 315 310 312 310 310 310 310 312 313 314 313 312 309 310 314 316 316 317 317 315 314 314 311 309 306 310 309 304 308 309 309 311 311 307 314 324 323 323 326 329 330 330 332
Wind_Speed
12 12 11 12 12 12 12 12 11 10 9 9 10 10 10 12 15 11 11 3 5 8 7 11 10 13 11 7 6 8 1 4 8 15 4 3 9 2 2 8 8 2 17 21 17
14 13 13 12 12 12 12 12 11 11 10 9 9 10 10 10 12 14 7 9 5 6 12 10 12 6 7 7 6 5 6 3 12 8 13 6 7 9 10 11 9 11 19 20 17
15 15 15 15 14 13 12 12 12 11 11 9 9 9 9 12 14 7 7 9 6 8 13 10 10 9 10 8 5 4 4 8 5 7 10 10 2 3 8 8 12 15 18 18 16
16 16 16 17 16 14 13 12 12 12 11 10 9 9 8 12 5 10 8 7 6 11 11 10 11 14 5 4 5 4 7 14 5 8 12 8 7 8 14 5 13 16 17 16 16
16 16 17 17 17 16 14 13 13 12 11 10 9 7 9 11 5 11 9 8 11 12 11 9 12 6 7 3 6 14 9 14 10 10 12 7 1 2 15 7 14 14 14 15 14
16 16 16 17 17 17 16 14 12 12 11 10 8 5 9 14 7 13 11 11 12 11 10 10 6 10 6 7 14 11 8 12 15 10 4 6 6 7 7 5 14 12 13 13 12
17 17 17 17 18 18 17 15 12 10 10 9 8 8 12 4 2 6 9 11 11 10 10 4 8 11 8 12 11 12 14 10 13 9 5 10 5 5 8 5 13 11 11 13 12
17 17 18 18 18 18 18 15 12 10 9 9 7 11 3 4 2 6 8 9 6 10 10 4 7 15 11 8 7 7 12 6 9 11 6 3 2 13 16 8 10 12 12 12 13
18 18 18 18 18 17 16 14 7 4 5 8 9 10 5 5 12 9 10 11 12 9 8 6 11 17 5 18 4 12 6 13 11 11 12 10 8 20 18 12 11 11 15 13 13
19 19 19 19 19 17 15 7 2 5 8 9 9 10 9 12 8 8 6 5 13 11 10 11 10 13 15 9 5 18 5 7 10 11 10 7 5 13 15 11 10 10 10 13 13
21 21 21 21 19 17 10 6 8 9 13 14 6 8 6 10 9 10 10 11 13 13 16 14 12 15 15 17 23 10 5 9 8 8 9 14 14 12 17 12 12 12 13 11 15
22 22 22 23 21 15 8 9 9 8 11 12 7 7 2 11 11 11 13 13 13 15 17 12 13 17 2 6 6 9 1 4 6 7 9 8 8 15 17 16 10 12 9 10 13
23 23 23 26 24 6 9 8 5 9 9 12 10 13 11 9 12 14 16 15 13 16 15 14 14 9 4 9 10 13 3 6 14 9 8 5 10 12 13 18 18 14 14 8 9
22 22 21 29 5 6 9 3 7 6 9 17 12 7 12 11 8 15 16 9 12 13 12 13 15 6 11 13 13 2 8 4 7 10 3 25 3 21 17 13 15 18 14 13 12
20 20 20 7 13 9 8 7 9 8 9 15 15 13 14 15 14 13 14 8 13 13 11 15 12 11 13 14 15 5 4 6 6 12 15 18 8 8 15 18 17 14 18 19 17
20 19 19 4 9 10 8 8 8 10 10 12 11 13 15 14 10 12 14 12 10 10 13 10 1 10 14 3 3 4 6 7 10 12 10 1 9 10 3 8 11 19 17 15 20
23 22 11 9 6 7 7 9 10 13 7 12 16 17 17 12 13 16 16 17 12 12 13 13 13 11 5 12 8 11 16 5 7 7 9 12 8 10 3 9 6 3 15 20 19
22 28 3 9 9 8 8 11 14 10 18 4 15 17 17 16 13 17 17 16 19 20 10 12 15 14 12 15 7 14 18 9 8 9 6 7 0 8 6 9 10 3 3 17 17
28 9 8 6 6 6 9 14 14 16 7 7 10 15 18 14 10 16 18 17 18 14 17 9 8 17 15 10 11 6 8 14 10 8 5 6 5 11 5 7 7 8 9 7 10
10 10 8 3 6 8 11 19 18 16 10 11 18 14 17 17 14 13 17 17 16 17 17 3 10 14 12 8 10 15 13 7 7 2 11 2 4 12 9 7 5 5 11 7 6
8 7 7 5 7 9 13 19 21 15 7 13 17 17 18 15 18 14 12 12 18 15 14 16 10 9 9 13 15 9 10 8 13 8 4 3 9 10 12 6 4 8 5 8 8
6 6 6 4 8 10 14 21 8 15 12 15 9 17 13 17 13 18 15 14 15 14 15 17 9 13 16 14 7 12 9 9 7 9 7 9 8 11 12 11 4 8 9 8 5
6 9 8 7 8 12 14 16 15 13 19 17 16 14 11 15 13 15 15 5 10 13 11 15 12 10 13 15 12 10 14 14 14 13 10 11 9 7 9 12 7 9 10 7 5
6 5 7 8 11 13 15 16 15 16 20 17 16 17 12 13 14 13 15 11 9 13 5 10 15 14 2 14 3 14 9 5 14 11 8 9 16 14 13 9 8 5 7 7 5
6 4 7 5 5 10 14 10 13 17 12 15 15 15 14 15 16 16 15 11 9 7 8 13 18 10 11 16 4 8 8 8 11 15 17 6 7 6 11 7 12 7 7 7 6
7 5 7 11 12 10 9 13 17 13 13 15 13 15 18 17 17 14 15 21 14 14 15 17 17 13 13 6 6 10 10 12 11 12 13 9 10 9 9 4 6 7 7 7 7
6 7 6 8 11 11 11 12 14 13 9 11 11 10 5 7 11 15 17 19 14 18 17 18 15 13 14 13 9 10 14 13 10 10 10 11 4 10 3 4 7 7 7 7 6
Wind_Direction
346 345 340 337 332 330 332 330 327 322 317 310 304 299 301 305 294 231 237 62 135 173 241 238 226 242 244 235 186 247 42 236 152 177 125 149 122 57 281 121 39 299 143 129 143
345 342 338 333 329 329 328 325 322 318 313 305 299 294 298 307 263 239 125 112 145 195 229 222 223 228 253 236 210 216 33 302 40 52 144 149 117 174 166 125 112 101 105 129 148
346 342 337 333 331 328 324 319 317 312 307 301 291 290 293 293 254 133 137 132 181 223 261 281 284 269 262 265 4 42 50 105 40 108 143 144 169 351 186 112 135 129 133 146 154
342 338 335 333 330 327 322 316 313 306 299 294 286 285 296 251 225 78 132 152 195 258 264 249 252 259 266 66 29 106 42 92 60 99 133 148 185 232 73 107 109 133 142 148 161
342 336 333 331 329 326 321 317 310 299 290 284 277 280 265 214 77 121 152 176 203 226 251 257 266 308 307 76 61 87 97 116 109 95 108 169 308 132 136 168 119 133 149 155 160
338 334 332 330 329 326 321 316 305 290 278 269 261 268 243 243 92 135 188 184 229 225 237 247 330 314 304 27 91 95 110 114 121 98 101 68 6 350 113 118 129 151 154 159 147
336 334 332 331 328 325 321 315 302 278 260 250 241 251 255 54 46 161 196 210 219 249 251 236 307 280 287 115 128 139 135 135 116 122 106 105 344 332 325 166 152 164 163 145 146
334 334 331 329 327 324 321 313 300 263 230 229 229 250 303 108 182 208 192 203 220 230 274 326 276 274 286 85 194 156 148 140 136 147 137 151 216 288 294 267 174 168 149 155 145
334 333 330 329 326 324 320 312 307 189 199 198 227 232 169 133 205 194 205 199 193 207 225 284 258 257 167 224 119 133 207 134 155 169 153 165 170 212 236 267 181 181 157 170 161
335 331 330 328 327 323 317 287 200 198 212 215 266 258 178 215 169 158 197 199 186 190 215 231 231 228 226 90 90 260 88 96 145 168 179 205 195 160 195 212 237 203 186 176 169
336 333 330 327 326 324 297 204 203 195 214 267 150 269 137 112 148 190 171 194 194 194 215 206 227 233 233 129 204 296 50 98 93 128 213 186 155 161 171 191 205 228 159 215 185
335 331 329 326 325 320 264 264 41 359 294 210 239 259 268 157 187 166 187 198 200 205 222 185 237 253 93 334 315 292 51 83 126 161 234 146 176 159 172 192 203 224 228 192 185
333 329 328 323 322 263 265 321 338 326 257 173 194 209 188 211 204 167 202 220 201 217 205 245 217 247 256 222 229 237 243 142 156 189 251 227 5 161 178 176 193 205 253 242 155
329 327 328 325 289 334 252 96 288 315 270 158 180 185 174 221 199 169 212 205 201 224 220 236 265 208 238 237 249 138 353 205 235 110 78 282 184 313 161 190 192 194 203 241 222
323 323 321 326 315 271 26 274 313 255 273 145 154 126 168 215 117 190 197 211 234 219 215 212 220 222 234 224 222 66 146 266 259 267 170 241 254 184 164 180 189 214 195 193 237
316 317 331 215 217 270 305 283 256 231 246 158 142 187 180 220 203 147 186 243 294 207 224 289 239 214 214 195 228 350 210 226 243 251 260 39 285 106 266 106 175 178 202 189 215
312 306 307 301 282 345 299 245 225 247 103 164 174 180 199 183 168 172 189 197 202 209 201 209 184 195 246 199 187 227 222 126 301 359 325 213 280 69 184 107 69 128 172 179 196
310 306 208 250 307 284 251 226 245 250 224 126 186 186 206 176 190 189 189 205 233 233 207 199 170 185 204 229 196 209 265 279 287 180 185 112 280 87 58 97 109 163 324 176 178
308 279 234 218 214 258 234 224 223 253 282 168 207 195 203 206 220 189 215 215 204 231 259 196 194 166 185 231 264 145 253 279 297 195 264 136 167 135 107 127 129 124 158 181 204
314 286 253 56 241 227 233 237 240 263 331 273 219 221 221 202 196 203 193 221 222 201 258 311 152 174 175 243 244 283 332 210 215 174 261 129 218 123 187 95 132 189 123 122 155
262 270 98 123 199 219 228 233 238 259 257 269 253 241 228 216 196 210 193 202 221 190 228 257 254 156 155 208 220 187 237 236 287 339 300 102 9 92 119 108 85 103 105 111 125
288 258 130 194 225 221 231 237 268 259 242 248 282 286 249 248 231 219 214 202 188 220 199 230 238 177 202 209 270 305 284 244 224 188 293 328 126 100 119 128 114 103 97 90 70
274 289 146 220 248 234 224 251 249 233 242 227 238 250 261 265 245 250 241 234 154 224 201 215 243 187 200 182 204 241 248 268 277 282 171 270 116 133 140 136 151 129 127 125 120
276 270 184 205 259 288 284 222 238 225 260 257 239 238 245 254 246 243 239 166 190 223 66 268 236 253 121 320 166 199 222 256 278 277 259 243 139 161 160 153 147 151 140 137 131
242 277 17 279 243 236 261 283 269 240 211 249 251 248 240 245 239 229 258 197 201 164 224 234 243 234 180 236 279 304 292 277 258 272 284 76 259 58 102 137 155 170 158 152 152
299 323 349 288 289 268 253 254 260 258 247 224 231 238 229 247 255 260 224 249 196 186 223 219 247 270 296 225 262 271 266 264 253 256 257 290 287 79 105 98 139 165 174 179 160
1 269 259 283 276 268 256 278 249 259 296 281 323 275 237 272 295 319 319 309 231 201 211 225 238 237 240 255 202 252 251 252 247 254 254 250 273 93 129 152 158 171 190 181 159